Location: Fort Wayne
(41.1310°N, 85.1290°W)
Time: 08:58:39
(UTC-04:00)

Cosmos 1953 - Visible Passes

Search period start: 17 April 2014 00:00
Search period end: 27 April 2014 00:00
Orbit: 553 x 571 km, 82.5° (Epoch: 17 April)

Date Brightness Start Highest point End Pass type
(mag) Time Alt. Az. Time Alt. Az. Time Alt. Az.
17 Apr 4.3 03:42:21 10° NNE 03:44:59 28° NE 03:44:59 28° NE visible
17 Apr 4.4 05:19:41 10° NW 05:20:56 15° WNW 05:20:56 15° WNW visible
18 Apr 4.3 03:41:46 10° N 03:44:13 29° NE 03:44:13 29° NE visible
18 Apr 4.6 05:19:36 10° NW 05:20:10 12° WNW 05:20:10 12° WNW visible
19 Apr 4.2 03:41:11 10° N 03:43:28 29° NNE 03:43:28 29° NNE visible
20 Apr 4.2 03:40:38 10° N 03:42:45 28° NNE 03:42:45 28° NNE visible
21 Apr 4.3 03:40:06 10° N 03:42:02 27° N 03:42:02 27° N visible
22 Apr 4.3 03:39:34 10° N 03:41:21 25° N 03:41:21 25° N visible
23 Apr 4.4 03:39:04 10° N 03:40:40 23° NNW 03:40:40 23° NNW visible
24 Apr 4.5 03:38:34 10° NNW 03:39:59 21° NNW 03:39:59 21° NNW visible
25 Apr 5.5 02:03:18 10° NE 02:03:22 10° NE 02:03:22 10° NE visible
25 Apr 4.6 03:38:05 10° NNW 03:39:19 19° NNW 03:39:19 19° NNW visible
26 Apr 5.4 02:02:13 10° NE 02:02:42 12° NE 02:02:42 12° NE visible
26 Apr 4.7 03:37:37 10° NNW 03:38:40 17° NNW 03:38:40 17° NNW visible
